Flag Weather past 2 weeks in Porto Novo, Benin

Now
82 °F

Thunderstorms. Passing clouds.


Feels Like: 92 °F
Forecast: 78 / 90 °F
Wind: 9 mph from Southwest

Location: Cotonou Airport

Current Time: Nov 27, 2014 at 7:37:58 PM

Latest Report: Nov 27, 2014 at 7:00 PM


Visibility: N/A

Pressure: 29.80 "Hg

Humidity: 89%

Dew point: 79 °F

Location of Porto NovoLocation

Historic Weather in Porto Novo — Graph

°F

Porto Novo temperature yesterday

Maximum temperature yesterday: 88 °F (at 12:00 PM)
Minimum temperature yesterday: 79 °F (at 5:00 AM)
Average temperature yesterday: 82 °F

Past Weeks' High & Low Weather Summary

 TemperatureHumidityPressure
High90 °F (Nov 14, 3:00 PM)100% (Nov 13, 1:00 AM)29.92 "Hg (Nov 13, 1:00 AM)
Low73 °F (Nov 15, 6:00 PM)70% (Nov 27, 11:00 AM)29.74 "Hg (Nov 15, 3:00 PM)
Average83 °F91%29.83 "Hg
* Reported Nov 12 6:00 PM — Nov 27 6:00 PM, Porto Novo, Weather by CustomWeather, © 2014

Note: Actual official high and low records may vary slightly from our data, if they occured in-between our weather recording intervals... More about our weather records

Advertising

Porto Novo weather history for previous 24 hours

 ConditionsComfort  
Time TempWeatherWind HumidityBarometerVisibility
6:00 PM
Nov 27
84 °FPassing clouds.9 mph84%29.77 "HgN/A
5:00 PM86 °FPassing clouds.8 mph84%29.77 "HgN/A
4:00 PM88 °FPassing clouds.10 mph79%29.77 "HgN/A
3:00 PM88 °FPassing clouds.10 mph79%29.77 "HgN/A
2:00 PM88 °FScattered clouds.10 mph79%29.80 "HgN/A
1:00 PM90 °FScattered clouds.12 mph75%29.83 "HgN/A
12:00 PM88 °FScattered clouds.8 mph70%29.83 "HgN/A
11:00 AM88 °FScattered clouds.8 mph70%29.86 "HgN/A
10:00 AM86 °FScattered clouds.7 mph84%29.86 "HgN/A
9:00 AM82 °FPassing clouds.3 mph94%29.86 "Hg4 mi
8:00 AM79 °FFog.2 mph100%29.86 "Hg2 mi
7:00 AM77 °FFog.1 mph100%29.83 "Hg2 mi
6:00 AM79 °FPassing clouds.2 mph100%29.83 "Hg5 mi
5:00 AM81 °FPassing clouds.7 mph100%29.80 "Hg5 mi
4:00 AM81 °FPassing clouds.8 mph94%29.80 "Hg5 mi
3:00 AM81 °FPassing clouds.8 mph94%29.80 "Hg5 mi
2:00 AM81 °FPassing clouds.7 mph94%29.80 "Hg5 mi
1:00 AM81 °FPartly cloudy.8 mph94%29.83 "HgN/A
12:00 AM81 °FPartly cloudy.9 mph94%29.83 "HgN/A
11:00 PM
Nov 26
81 °FPartly cloudy.9 mph94%29.83 "HgN/A
10:00 PM79 °FPartly cloudy.8 mph100%29.86 "HgN/A
9:00 PM81 °FPartly cloudy.2 mph100%29.83 "HgN/A
8:00 PM81 °FPartly cloudy.6 mph94%29.80 "HgN/A
7:00 PM81 °FPartly cloudy.7 mph100%29.80 "HgN/A
Weather by CustomWeather, © 2014

See weather overviewHow to use our weather pages